Time,TemperatureF,DewpointF,PressureIn,WindDirection,WindDirectionDegrees,WindSpeedMPH,WindSpeedGustMPH,Humidity,HourlyPrecipIn,Conditions,Clouds,dailyrainin,SoftwareType,DateUTC
2013-01-30 00:01:00,52.9,52.3,29.49,SE,144,16.1,16.1,98,0.00,,---,0.00,VWS V14.01,2013-01-30 05:01:00,
2013-01-30 00:02:00,52.9,52.3,29.49,SE,128,7.2,16.1,98,0.00,,---,0.00,VWS V14.01,2013-01-30 05:02:00,
2013-01-30 00:03:00,52.9,52.3,29.49,ESE,121,6.3,9.8,98,0.00,,---,0.00,VWS V14.01,2013-01-30 05:03:00,
2013-01-30 00:08:00,52.9,52.3,29.49,SE,142,7.2,15.2,98,0.00,,---,0.00,VWS V14.01,2013-01-30 05:08:00,
2013-01-30 00:13:00,53.1,52.5,29.49,SSE,155,12.5,12.5,98,0.00,,---,0.00,VWS V14.01,2013-01-30 05:13:00,
2013-01-30 00:18:00,53.1,52.5,29.49,South,184,12.5,15.2,98,0.00,,---,0.00,VWS V14.01,2013-01-30 05:18:00,
2013-01-30 00:23:00,52.9,52.3,29.46,SE,134,8.1,11.6,98,0.00,,---,0.00,VWS V14.01,2013-01-30 05:23:00,
2013-01-30 00:28:00,53.1,52.5,29.46,SSE,149,7.2,10.7,98,0.00,,---,0.00,VWS V14.01,2013-01-30 05:28:00,
2013-01-30 00:33:00,52.9,52.3,29.46,SSE,158,5.4,8.1,98,0.00,,---,0.00,VWS V14.01,2013-01-30 05:33:00,
2013-01-30 00:38:00,52.9,52.3,29.46,SE,145,15.2,15.2,98,0.00,,---,0.00,VWS V14.01,2013-01-30 05:38:00,
2013-01-30 00:43:00,53.1,52.5,29.46,SSE,161,5.4,12.5,98,0.00,,---,0.00,VWS V14.01,2013-01-30 05:43:00,
2013-01-30 00:49:00,53.1,52.5,29.46,ENE,78,12.5,12.5,98,0.00,,---,0.00,VWS V14.01,2013-01-30 05:49:00,
2013-01-30 00:54:00,52.9,52.3,29.43,SSE,151,6.3,21.0,98,0.00,,---,0.00,VWS V14.01,2013-01-30 05:54:00,
2013-01-30 00:59:00,53.1,52.5,29.43,SE,134,6.3,8.1,98,0.00,,---,0.00,VWS V14.01,2013-01-30 05:59:00,
2013-01-30 01:04:00,52.9,52.3,29.43,SE,143,9.8,9.8,98,0.00,,---,0.00,VWS V14.01,2013-01-30 06:04:00,
2013-01-30 01:09:00,52.9,52.3,29.43,ESE,120,8.1,8.1,98,0.00,,---,0.00,VWS V14.01,2013-01-30 06:09:00,
2013-01-30 01:14:00,52.9,52.3,29.43,SSE,154,6.3,6.3,98,0.00,,---,0.00,VWS V14.01,2013-01-30 06:14:00,
2013-01-30 01:19:00,52.7,52.2,29.43,SE,138,8.1,15.2,98,0.00,,---,0.00,VWS V14.01,2013-01-30 06:19:00,
2013-01-30 01:24:00,52.9,52.3,29.40,SE,141,11.6,11.6,98,0.00,,---,0.00,VWS V14.01,2013-01-30 06:24:00,
2013-01-30 01:29:00,52.7,52.2,29.40,SE,126,12.5,12.5,98,0.00,,---,0.00,VWS V14.01,2013-01-30 06:29:00,
2013-01-30 01:34:00,52.7,52.2,29.40,SE,131,8.1,9.8,98,0.00,,---,0.00,VWS V14.01,2013-01-30 06:34:00,
2013-01-30 01:39:00,52.9,52.3,29.37,ESE,114,8.1,10.7,98,0.00,,---,0.00,VWS V14.01,2013-01-30 06:39:00,
2013-01-30 01:44:00,52.9,52.3,29.37,SSE,167,7.2,7.2,98,0.00,,---,0.00,VWS V14.01,2013-01-30 06:44:00,
2013-01-30 01:49:00,52.7,52.2,29.37,SE,144,7.2,9.8,98,0.00,,---,0.00,VWS V14.01,2013-01-30 06:49:00,
2013-01-30 01:54:00,52.9,52.3,29.37,SE,141,9.8,9.8,98,0.00,,---,0.00,VWS V14.01,2013-01-30 06:54:00,
2013-01-30 01:59:00,52.9,52.3,29.37,SE,144,8.1,15.2,98,0.08,,---,0.08,VWS V14.01,2013-01-30 06:59:00,
2013-01-30 02:04:00,53.1,52.5,29.37,ESE,111,7.2,7.2,98,0.08,,---,0.08,VWS V14.01,2013-01-30 07:04:00,
2013-01-30 02:09:00,53.1,52.5,29.37,SE,145,6.3,14.3,98,0.08,,---,0.08,VWS V14.01,2013-01-30 07:09:00,
2013-01-30 02:14:00,53.1,52.5,29.37,SE,137,8.1,8.1,98,0.08,,---,0.08,VWS V14.01,2013-01-30 07:14:00,
2013-01-30 02:20:00,53.2,52.7,29.37,South,183,7.2,8.1,98,0.08,,---,0.08,VWS V14.01,2013-01-30 07:20:00,
2013-01-30 02:25:00,53.2,52.7,29.34,ESE,122,8.1,10.7,98,0.08,,---,0.08,VWS V14.01,2013-01-30 07:25:00,
2013-01-30 02:30:00,53.4,52.9,29.34,SSE,147,6.3,6.3,98,0.08,,---,0.08,VWS V14.01,2013-01-30 07:30:00,
2013-01-30 02:35:00,53.4,52.9,29.34,ESE,110,5.4,5.4,98,0.08,,---,0.08,VWS V14.01,2013-01-30 07:35:00,
2013-01-30 02:40:00,53.4,52.9,29.34,SSE,148,8.1,16.1,98,0.08,,---,0.08,VWS V14.01,2013-01-30 07:40:00,
2013-01-30 02:45:00,53.8,53.2,29.34,SE,137,6.3,7.2,98,0.08,,---,0.08,VWS V14.01,2013-01-30 07:45:00,
2013-01-30 02:50:00,54.1,53.6,29.34,SE,145,4.5,5.4,98,0.08,,---,0.08,VWS V14.01,2013-01-30 07:50:00,
2013-01-30 02:55:00,54.5,54.0,29.34,SSE,165,14.3,14.3,98,0.08,,---,0.08,VWS V14.01,2013-01-30 07:55:00,
2013-01-30 03:00:00,54.7,54.1,29.34,SSE,157,8.1,12.5,98,0.00,,---,0.08,VWS V14.01,2013-01-30 08:00:00,
2013-01-30 03:05:00,54.9,54.3,29.34,SSE,157,8.1,10.7,98,0.00,,---,0.08,VWS V14.01,2013-01-30 08:05:00,
2013-01-30 03:10:00,55.2,54.7,29.31,SSE,147,11.6,21.9,98,0.00,,---,0.08,VWS V14.01,2013-01-30 08:10:00,
2013-01-30 03:15:00,55.4,54.8,29.31,South,177,10.7,14.3,98,0.00,,---,0.08,VWS V14.01,2013-01-30 08:15:00,
2013-01-30 03:20:00,55.9,55.4,29.31,South,172,30.9,30.9,98,0.00,,---,0.08,VWS V14.01,2013-01-30 08:20:00,
2013-01-30 03:25:00,56.3,55.8,29.31,SSW,201,7.2,16.1,98,0.00,,---,0.08,VWS V14.01,2013-01-30 08:25:00,
2013-01-30 03:30:00,56.7,56.1,29.31,South,171,10.7,14.3,98,0.00,,---,0.08,VWS V14.01,2013-01-30 08:30:00,
2013-01-30 03:35:00,57.0,56.5,29.31,SE,124,12.5,21.0,98,0.00,,---,0.08,VWS V14.01,2013-01-30 08:35:00,
2013-01-30 03:40:00,57.6,57.0,29.28,SE,131,21.0,21.0,98,0.00,,---,0.08,VWS V14.01,2013-01-30 08:40:00,
2013-01-30 03:46:00,57.7,57.2,29.28,SE,137,0.0,10.7,98,0.00,,---,0.08,VWS V14.01,2013-01-30 08:46:00,
2013-01-30 03:51:00,57.9,57.4,29.28,SE,138,17.4,17.4,98,0.00,,---,0.08,VWS V14.01,2013-01-30 08:51:00,
2013-01-30 03:56:00,57.9,57.4,29.28,SSE,152,7.2,16.6,98,0.00,,---,0.08,VWS V14.01,2013-01-30 08:56:00,
2013-01-30 04:01:00,58.1,57.5,29.28,ESE,121,10.7,15.2,98,0.00,,---,0.08,VWS V14.01,2013-01-30 09:01:00,
2013-01-30 04:06:00,58.1,57.5,29.28,South,182,12.5,17.4,98,0.04,,---,0.12,VWS V14.01,2013-01-30 09:06:00,
2013-01-30 04:11:00,58.3,57.7,29.28,WNW,297,17.4,17.4,98,0.08,,---,0.16,VWS V14.01,2013-01-30 09:11:00,
2013-01-30 04:16:00,57.9,57.4,29.28,WNW,297,20.1,21.9,98,0.12,,---,0.20,VWS V14.01,2013-01-30 09:16:00,
2013-01-30 04:21:00,56.7,56.1,29.28,NNW,332,12.5,15.2,98,0.12,,---,0.20,VWS V14.01,2013-01-30 09:21:00,
2013-01-30 04:26:00,55.8,55.2,29.31,NW,312,16.6,17.4,98,0.12,,---,0.20,VWS V14.01,2013-01-30 09:26:00,
2013-01-30 04:31:00,54.9,54.3,29.31,WNW,298,16.6,21.9,98,0.12,,---,0.20,VWS V14.01,2013-01-30 09:31:00,
2013-01-30 04:36:00,54.3,53.8,29.31,NW,314,10.7,17.4,98,0.12,,---,0.20,VWS V14.01,2013-01-30 09:36:00,
2013-01-30 04:41:00,54.0,53.4,29.31,NW,318,10.7,17.4,98,0.12,,---,0.20,VWS V14.01,2013-01-30 09:41:00,
2013-01-30 04:46:00,53.6,53.0,29.31,WNW,300,5.4,12.5,98,0.12,,---,0.20,VWS V14.01,2013-01-30 09:46:00,
2013-01-30 04:51:00,53.2,52.7,29.31,North,351,11.6,12.5,98,0.12,,---,0.20,VWS V14.01,2013-01-30 09:51:00,
2013-01-30 04:56:00,53.1,52.5,29.31,NNW,328,10.7,16.6,98,0.12,,---,0.20,VWS V14.01,2013-01-30 09:56:00,
2013-01-30 05:02:00,52.9,52.3,29.31,NNW,339,10.7,16.6,98,0.12,,---,0.20,VWS V14.01,2013-01-30 10:02:00,
2013-01-30 05:06:00,52.7,52.2,29.34,WNW,282,5.4,7.2,98,0.08,,---,0.20,VWS V14.01,2013-01-30 10:06:00,
2013-01-30 05:12:00,52.5,52.0,29.34,NNW,333,8.1,15.2,98,0.04,,---,0.20,VWS V14.01,2013-01-30 10:12:00,
2013-01-30 05:17:00,52.2,51.6,29.34,NW,324,6.3,9.8,98,0.00,,---,0.20,VWS V14.01,2013-01-30 10:17:00,
2013-01-30 05:22:00,52.0,51.4,29.31,NNW,328,10.7,12.5,98,0.04,,---,0.24,VWS V14.01,2013-01-30 10:22:00,
2013-01-30 05:27:00,51.8,51.3,29.31,NNW,341,10.7,10.7,98,0.04,,---,0.24,VWS V14.01,2013-01-30 10:27:00,
2013-01-30 05:32:00,51.8,51.3,29.31,NW,321,11.6,11.6,98,0.04,,---,0.24,VWS V14.01,2013-01-30 10:32:00,
2013-01-30 05:37:00,51.6,51.1,29.34,NW,324,0.0,0.0,98,0.04,,---,0.24,VWS V14.01,2013-01-30 10:37:00,
2013-01-30 05:42:00,51.4,50.9,29.34,NW,319,5.4,5.4,98,0.04,,---,0.24,VWS V14.01,2013-01-30 10:42:00,
2013-01-30 05:47:00,51.4,50.9,29.34,WSW,240,8.1,8.1,98,0.04,,---,0.24,VWS V14.01,2013-01-30 10:47:00,
2013-01-30 05:52:00,51.3,50.7,29.34,NW,318,15.2,15.2,98,0.08,,---,0.28,VWS V14.01,2013-01-30 10:52:00,
2013-01-30 05:57:00,51.3,50.7,29.34,WNW,290,6.3,10.7,98,0.08,,---,0.28,VWS V14.01,2013-01-30 10:57:00,
2013-01-30 06:02:00,51.1,50.5,29.34,SW,231,6.3,6.3,98,0.08,,---,0.28,VWS V14.01,2013-01-30 11:02:00,
2013-01-30 06:07:00,51.1,50.5,29.37,WNW,291,6.3,8.1,98,0.08,,---,0.28,VWS V14.01,2013-01-30 11:07:00,
2013-01-30 06:12:00,50.9,50.4,29.37,NW,316,6.3,6.3,98,0.08,,---,0.28,VWS V14.01,2013-01-30 11:12:00,
2013-01-30 06:17:00,50.9,50.4,29.37,West,277,0.0,6.3,98,0.08,,---,0.28,VWS V14.01,2013-01-30 11:17:00,
2013-01-30 06:22:00,50.7,50.2,29.34,NNW,331,0.0,0.0,98,0.04,,---,0.28,VWS V14.01,2013-01-30 11:22:00,
2013-01-30 06:28:00,50.7,50.2,29.34,WNW,294,5.4,5.4,98,0.04,,---,0.28,VWS V14.01,2013-01-30 11:28:00,
2013-01-30 06:33:00,50.5,50.0,29.34,WNW,294,5.4,5.4,98,0.08,,---,0.31,VWS V14.01,2013-01-30 11:33:00,
2013-01-30 06:38:00,50.5,50.0,29.34,WNW,302,0.0,5.4,98,0.08,,---,0.31,VWS V14.01,2013-01-30 11:38:00,
2013-01-30 06:43:00,50.4,49.8,29.34,WNW,301,0.0,0.0,98,0.08,,---,0.31,VWS V14.01,2013-01-30 11:43:00,
2013-01-30 06:48:00,50.4,49.8,29.34,WNW,301,0.0,0.0,98,0.08,,---,0.31,VWS V14.01,2013-01-30 11:48:00,
2013-01-30 06:53:00,50.2,49.6,29.34,WNW,301,0.0,0.0,98,0.04,,---,0.31,VWS V14.01,2013-01-30 11:53:00,
2013-01-30 06:58:00,50.2,49.6,29.34,WNW,301,0.0,0.0,98,0.08,,---,0.35,VWS V14.01,2013-01-30 11:58:00,
2013-01-30 07:03:00,50.0,49.5,29.34,WNW,301,0.0,0.0,98,0.08,,---,0.35,VWS V14.01,2013-01-30 12:03:00,
2013-01-30 07:08:00,49.6,49.1,29.34,WNW,301,0.0,0.0,98,0.08,,---,0.35,VWS V14.01,2013-01-30 12:08:00,
2013-01-30 07:13:00,49.5,48.9,29.34,WNW,301,0.0,0.0,98,0.08,,---,0.35,VWS V14.01,2013-01-30 12:13:00,
2013-01-30 07:18:00,49.3,48.7,29.34,WNW,301,0.0,0.0,98,0.08,,---,0.35,VWS V14.01,2013-01-30 12:18:00,
2013-01-30 07:23:00,48.9,48.4,29.34,WNW,301,0.0,0.0,98,0.08,,---,0.35,VWS V14.01,2013-01-30 12:23:00,
2013-01-30 07:28:00,48.7,48.2,29.34,WNW,301,0.0,0.0,98,0.08,,---,0.35,VWS V14.01,2013-01-30 12:28:00,
2013-01-30 07:33:00,48.7,48.2,29.34,WNW,301,0.0,0.0,98,0.04,,---,0.35,VWS V14.01,2013-01-30 12:33:00,
2013-01-30 07:39:00,48.7,48.2,29.31,WNW,301,4.5,6.3,98,0.04,,---,0.35,VWS V14.01,2013-01-30 12:39:00,
2013-01-30 07:44:00,48.6,48.0,29.31,WNW,301,0.0,0.0,98,0.04,,---,0.35,VWS V14.01,2013-01-30 12:44:00,
2013-01-30 07:49:00,48.2,47.7,29.31,WNW,301,0.0,0.0,98,0.04,,---,0.35,VWS V14.01,2013-01-30 12:49:00,
2013-01-30 07:54:00,48.0,47.5,29.31,WNW,301,0.0,0.0,98,0.04,,---,0.35,VWS V14.01,2013-01-30 12:54:00,
2013-01-30 07:59:00,47.8,47.3,29.31,South,191,0.0,0.0,98,0.00,,---,0.35,VWS V14.01,2013-01-30 12:59:00,
2013-01-30 08:04:00,48.0,47.5,29.31,South,191,0.0,0.0,98,0.00,,---,0.35,VWS V14.01,2013-01-30 13:04:00,
2013-01-30 08:09:00,48.0,47.5,29.28,South,191,0.0,0.0,98,0.00,,---,0.35,VWS V14.01,2013-01-30 13:09:00,
2013-01-30 08:14:00,47.8,47.3,29.28,South,186,0.0,0.0,98,0.00,,---,0.35,VWS V14.01,2013-01-30 13:14:00,
2013-01-30 08:19:00,47.8,47.3,29.28,South,182,0.0,0.0,98,0.00,,---,0.35,VWS V14.01,2013-01-30 13:19:00,
2013-01-30 08:24:00,48.2,47.7,29.28,South,181,0.0,0.0,98,0.00,,---,0.35,VWS V14.01,2013-01-30 13:24:00,
2013-01-30 08:29:00,48.0,47.5,29.28,South,171,0.0,6.3,98,0.00,,---,0.35,VWS V14.01,2013-01-30 13:29:00,
2013-01-30 08:34:00,47.8,47.3,29.28,SSE,152,0.0,0.0,98,0.00,,---,0.35,VWS V14.01,2013-01-30 13:34:00,
2013-01-30 08:39:00,47.7,47.1,29.28,ESE,116,0.0,0.0,98,0.00,,---,0.35,VWS V14.01,2013-01-30 13:39:00,
2013-01-30 08:44:00,47.8,47.3,29.28,South,179,4.5,5.4,98,0.00,,---,0.35,VWS V14.01,2013-01-30 13:44:00,
2013-01-30 08:49:00,48.2,47.7,29.28,SE,141,5.4,6.3,98,0.00,,---,0.35,VWS V14.01,2013-01-30 13:49:00,
2013-01-30 08:54:00,48.6,48.0,29.28,SSW,210,4.5,9.8,98,0.00,,---,0.35,VWS V14.01,2013-01-30 13:54:00,
2013-01-30 08:59:00,48.7,48.2,29.28,South,177,0.0,0.0,98,0.00,,---,0.35,VWS V14.01,2013-01-30 13:59:00,
2013-01-30 09:05:00,48.9,48.4,29.28,South,172,0.0,0.0,98,0.00,,---,0.35,VWS V14.01,2013-01-30 14:05:00,
2013-01-30 09:10:00,49.1,48.6,29.28,South,174,0.0,0.0,98,0.00,,---,0.35,VWS V14.01,2013-01-30 14:10:00,
2013-01-30 09:15:00,49.1,48.6,29.28,South,174,0.0,0.0,98,0.00,,---,0.35,VWS V14.01,2013-01-30 14:15:00,
2013-01-30 09:20:00,48.7,48.2,29.28,SSW,213,0.0,0.0,98,0.00,,---,0.35,VWS V14.01,2013-01-30 14:20:00,
2013-01-30 09:25:00,48.9,48.4,29.28,SSW,208,8.1,8.1,98,0.00,,---,0.35,VWS V14.01,2013-01-30 14:25:00,
2013-01-30 09:30:00,49.1,48.6,29.28,SSE,148,5.4,5.4,98,0.00,,---,0.35,VWS V14.01,2013-01-30 14:30:00,
2013-01-30 09:35:00,49.1,48.6,29.28,South,170,8.1,9.8,98,0.00,,---,0.35,VWS V14.01,2013-01-30 14:35:00,
2013-01-30 09:40:00,49.3,48.7,29.28,SE,134,6.3,6.3,98,0.00,,---,0.35,VWS V14.01,2013-01-30 14:40:00,
2013-01-30 09:45:00,49.3,48.7,29.28,SSW,213,5.4,5.4,98,0.00,,---,0.35,VWS V14.01,2013-01-30 14:45:00,
2013-01-30 09:50:00,49.5,48.9,29.28,SW,221,5.4,9.8,98,0.00,,---,0.35,VWS V14.01,2013-01-30 14:50:00,
2013-01-30 09:55:00,49.6,49.1,29.31,South,173,4.5,6.3,98,0.00,,---,0.35,VWS V14.01,2013-01-30 14:55:00,
2013-01-30 10:00:00,49.6,49.1,29.31,SSW,192,7.2,11.6,98,0.00,,---,0.35,VWS V14.01,2013-01-30 15:00:00,
2013-01-30 10:05:00,49.6,49.1,29.31,SSE,156,6.3,6.3,98,0.00,,---,0.35,VWS V14.01,2013-01-30 15:05:00,
2013-01-30 10:10:00,49.6,49.1,29.31,SSW,212,8.1,8.1,98,0.00,,---,0.35,VWS V14.01,2013-01-30 15:10:00,
2013-01-30 10:15:00,49.6,49.1,29.31,WNW,291,6.3,6.3,98,0.00,,---,0.35,VWS V14.01,2013-01-30 15:15:00,
2013-01-30 10:20:00,49.6,49.1,29.31,SW,218,8.1,8.1,98,0.00,,---,0.35,VWS V14.01,2013-01-30 15:20:00,
2013-01-30 10:25:00,49.6,49.1,29.31,SSW,207,6.3,8.1,98,0.00,,---,0.35,VWS V14.01,2013-01-30 15:25:00,
2013-01-30 10:30:00,49.8,49.3,29.31,SSE,151,0.0,0.0,98,0.00,,---,0.35,VWS V14.01,2013-01-30 15:30:00,
2013-01-30 10:35:00,49.8,49.3,29.31,SSW,198,10.7,10.7,98,0.00,,---,0.35,VWS V14.01,2013-01-30 15:35:00,
2013-01-30 10:41:00,50.0,49.5,29.31,SW,216,10.7,11.6,98,0.00,,---,0.35,VWS V14.01,2013-01-30 15:41:00,
2013-01-30 10:46:00,50.2,49.6,29.31,SW,226,8.9,9.8,98,0.00,,---,0.35,VWS V14.01,2013-01-30 15:46:00,
2013-01-30 10:51:00,50.2,49.6,29.31,SE,140,9.8,9.8,98,0.00,,---,0.35,VWS V14.01,2013-01-30 15:51:00,
2013-01-30 10:56:00,50.2,49.6,29.34,SW,235,5.4,6.3,98,0.00,,---,0.35,VWS V14.01,2013-01-30 15:56:00,
2013-01-30 11:01:00,50.2,49.6,29.34,WSW,248,7.2,10.7,98,0.00,,---,0.35,VWS V14.01,2013-01-30 16:01:00,
2013-01-30 11:06:00,50.2,49.6,29.31,WSW,242,8.1,8.1,98,0.00,,---,0.35,VWS V14.01,2013-01-30 16:06:00,
2013-01-30 11:11:00,50.2,49.6,29.31,SE,133,10.7,10.7,98,0.00,,---,0.35,VWS V14.01,2013-01-30 16:11:00,
2013-01-30 11:16:00,50.2,49.6,29.31,SSW,196,10.7,10.7,98,0.00,,---,0.35,VWS V14.01,2013-01-30 16:16:00,
2013-01-30 11:21:00,50.2,49.6,29.31,SSE,166,7.2,7.2,98,0.00,,---,0.35,VWS V14.01,2013-01-30 16:21:00,
2013-01-30 11:26:00,50.4,49.8,29.31,SW,220,7.2,10.7,98,0.00,,---,0.35,VWS V14.01,2013-01-30 16:26:00,
2013-01-30 11:31:00,50.4,49.8,29.31,SSW,201,6.3,7.2,98,0.00,,---,0.35,VWS V14.01,2013-01-30 16:31:00,
2013-01-30 11:36:00,50.5,50.0,29.31,SSW,213,6.3,6.3,98,0.00,,---,0.35,VWS V14.01,2013-01-30 16:36:00,
2013-01-30 11:41:00,50.7,50.2,29.31,South,188,5.4,5.4,98,0.00,,---,0.35,VWS V14.01,2013-01-30 16:41:00,
2013-01-30 11:46:00,50.7,50.2,29.31,South,187,6.3,10.7,98,0.00,,---,0.35,VWS V14.01,2013-01-30 16:46:00,
2013-01-30 11:51:00,50.9,50.4,29.28,SSW,192,0.0,9.8,98,0.00,,---,0.35,VWS V14.01,2013-01-30 16:51:00,
2013-01-30 11:56:00,50.9,50.4,29.28,SE,124,7.2,8.1,98,0.00,,---,0.35,VWS V14.01,2013-01-30 16:56:00,
2013-01-30 12:01:00,51.1,50.5,29.28,SSE,150,5.4,16.1,98,0.00,,---,0.35,VWS V14.01,2013-01-30 17:01:00,
2013-01-30 12:06:00,51.1,50.5,29.28,SSE,160,12.5,13.4,98,0.00,,---,0.35,VWS V14.01,2013-01-30 17:06:00,
2013-01-30 12:11:00,51.3,50.7,29.28,SSW,211,10.7,11.6,98,0.00,,---,0.35,VWS V14.01,2013-01-30 17:11:00,
2013-01-30 12:16:00,51.4,50.9,29.28,South,177,0.0,8.1,98,0.00,,---,0.35,VWS V14.01,2013-01-30 17:16:00,
2013-01-30 12:21:00,51.6,51.1,29.28,South,184,7.2,16.6,98,0.00,,---,0.35,VWS V14.01,2013-01-30 17:21:00,
2013-01-30 12:26:00,51.8,51.3,29.28,ESE,113,11.6,20.1,98,0.00,,---,0.35,VWS V14.01,2013-01-30 17:26:00,
2013-01-30 12:31:00,51.8,51.3,29.28,SE,145,10.7,11.6,98,0.00,,---,0.35,VWS V14.01,2013-01-30 17:31:00,
2013-01-30 12:36:00,51.8,51.3,29.28,SSE,163,10.7,10.7,98,0.00,,---,0.35,VWS V14.01,2013-01-30 17:36:00,
2013-01-30 12:42:00,52.0,51.4,29.28,SW,226,9.8,9.8,98,0.00,,---,0.35,VWS V14.01,2013-01-30 17:42:00,
2013-01-30 12:47:00,52.2,51.6,29.28,SSW,199,8.1,10.7,98,0.00,,---,0.35,VWS V14.01,2013-01-30 17:47:00,
2013-01-30 12:52:00,52.2,51.6,29.25,SSE,168,12.5,15.2,98,0.00,,---,0.35,VWS V14.01,2013-01-30 17:52:00,
2013-01-30 12:57:00,52.2,51.6,29.25,SW,219,0.0,4.5,98,0.00,,---,0.35,VWS V14.01,2013-01-30 17:57:00,
2013-01-30 13:02:00,52.0,51.4,29.25,WSW,238,7.2,7.2,98,0.00,,---,0.35,VWS V14.01,2013-01-30 18:02:00,
2013-01-30 13:07:00,52.0,51.4,29.22,South,171,7.2,7.2,98,0.00,,---,0.35,VWS V14.01,2013-01-30 18:07:00,
2013-01-30 13:12:00,52.0,51.4,29.22,SSW,205,7.2,8.1,98,0.00,,---,0.35,VWS V14.01,2013-01-30 18:12:00,
2013-01-30 13:17:00,52.0,51.4,29.22,South,174,4.5,13.4,98,0.00,,---,0.35,VWS V14.01,2013-01-30 18:17:00,
2013-01-30 13:22:00,51.8,51.3,29.25,South,185,14.3,14.3,98,0.00,,---,0.35,VWS V14.01,2013-01-30 18:22:00,
2013-01-30 13:27:00,51.8,51.3,29.25,SW,214,7.2,7.2,98,0.00,,---,0.35,VWS V14.01,2013-01-30 18:27:00,
2013-01-30 13:32:00,51.8,51.3,29.25,ESE,123,7.2,7.2,98,0.00,,---,0.35,VWS V14.01,2013-01-30 18:32:00,
2013-01-30 13:37:00,51.6,51.1,29.25,SW,233,11.6,14.3,98,0.00,,---,0.35,VWS V14.01,2013-01-30 18:37:00,
2013-01-30 13:42:00,51.6,51.1,29.25,SSW,200,10.7,16.1,98,0.00,,---,0.35,VWS V14.01,2013-01-30 18:42:00,
2013-01-30 13:47:00,51.6,51.1,29.25,SSW,193,9.8,16.1,98,0.00,,---,0.35,VWS V14.01,2013-01-30 18:47:00,
2013-01-30 13:52:00,51.6,51.1,29.25,SSW,206,11.6,11.6,98,0.00,,---,0.35,VWS V14.01,2013-01-30 18:52:00,
2013-01-30 13:57:00,51.6,51.1,29.25,WSW,239,8.1,10.7,98,0.00,,---,0.35,VWS V14.01,2013-01-30 18:57:00,
2013-01-30 14:02:00,51.6,51.1,29.25,SSW,212,10.7,16.1,98,0.00,,---,0.35,VWS V14.01,2013-01-30 19:02:00,
2013-01-30 14:07:00,51.6,51.1,29.25,South,191,16.6,22.8,98,0.00,,---,0.35,VWS V14.01,2013-01-30 19:07:00,
2013-01-30 14:12:00,51.6,51.1,29.25,South,175,15.2,17.4,98,0.00,,---,0.35,VWS V14.01,2013-01-30 19:12:00,
2013-01-30 14:17:00,51.4,50.9,29.25,SW,214,19.2,19.2,98,0.00,,---,0.35,VWS V14.01,2013-01-30 19:17:00,
2013-01-30 14:23:00,51.3,50.7,29.25,SSE,150,12.5,12.5,98,0.00,,---,0.35,VWS V14.01,2013-01-30 19:23:00,
2013-01-30 14:28:00,51.1,50.5,29.25,South,187,7.2,7.2,98,0.00,,---,0.35,VWS V14.01,2013-01-30 19:28:00,
2013-01-30 14:33:00,50.9,50.4,29.25,South,181,11.6,11.6,98,0.00,,---,0.35,VWS V14.01,2013-01-30 19:33:00,
2013-01-30 14:38:00,50.9,50.4,29.22,South,190,8.1,12.5,98,0.00,,---,0.35,VWS V14.01,2013-01-30 19:38:00,
2013-01-30 14:43:00,50.7,50.2,29.22,SE,144,5.4,8.1,98,0.00,,---,0.35,VWS V14.01,2013-01-30 19:43:00,
2013-01-30 14:48:00,50.7,50.2,29.22,South,181,7.2,7.2,98,0.00,,---,0.35,VWS V14.01,2013-01-30 19:48:00,
2013-01-30 14:53:00,50.7,50.2,29.22,SSE,165,19.2,19.2,98,0.00,,---,0.35,VWS V14.01,2013-01-30 19:53:00,
2013-01-30 14:58:00,50.7,50.2,29.22,SW,230,5.4,8.1,98,0.00,,---,0.35,VWS V14.01,2013-01-30 19:58:00,
2013-01-30 15:03:00,50.7,50.2,29.22,SW,220,11.6,11.6,98,0.00,,---,0.35,VWS V14.01,2013-01-30 20:03:00,
2013-01-30 15:08:00,50.7,50.2,29.19,SW,223,8.1,11.6,98,0.00,,---,0.35,VWS V14.01,2013-01-30 20:08:00,
2013-01-30 15:13:00,50.9,50.4,29.19,South,191,11.6,11.6,98,0.00,,---,0.35,VWS V14.01,2013-01-30 20:13:00,
2013-01-30 15:18:00,50.9,50.4,29.19,South,174,6.3,16.6,98,0.00,,---,0.35,VWS V14.01,2013-01-30 20:18:00,
2013-01-30 15:24:00,50.9,50.4,29.22,SSE,156,11.6,11.6,98,0.00,,---,0.35,VWS V14.01,2013-01-30 20:24:00,
2013-01-30 15:29:00,50.9,50.4,29.22,South,177,6.3,6.3,98,0.00,,---,0.35,VWS V14.01,2013-01-30 20:29:00,
2013-01-30 15:34:00,50.9,50.4,29.22,South,179,8.1,8.1,98,0.00,,---,0.35,VWS V14.01,2013-01-30 20:34:00,
2013-01-30 15:39:00,50.9,50.4,29.16,SSW,193,4.5,8.1,98,0.00,,---,0.35,VWS V14.01,2013-01-30 20:39:00,
2013-01-30 15:44:00,51.1,50.5,29.16,SW,219,8.1,12.5,98,0.00,,---,0.35,VWS V14.01,2013-01-30 20:44:00,
2013-01-30 15:49:00,50.9,50.4,29.16,SSW,213,5.4,5.4,98,0.00,,---,0.35,VWS V14.01,2013-01-30 20:49:00,
2013-01-30 15:54:00,50.9,50.4,29.16,South,172,7.2,10.7,98,0.00,,---,0.35,VWS V14.01,2013-01-30 20:54:00,
2013-01-30 15:59:00,50.9,50.4,29.16,South,188,7.2,7.2,98,0.00,,---,0.35,VWS V14.01,2013-01-30 20:59:00,
2013-01-30 16:04:00,51.1,50.5,29.16,South,181,7.2,10.7,98,0.00,,---,0.35,VWS V14.01,2013-01-30 21:04:00,
2013-01-30 16:09:00,50.9,50.4,29.19,South,172,11.6,17.4,98,0.00,,---,0.35,VWS V14.01,2013-01-30 21:09:00,
2013-01-30 16:14:00,50.9,50.4,29.19,SSE,158,12.5,17.4,98,0.00,,---,0.35,VWS V14.01,2013-01-30 21:14:00,
2013-01-30 16:19:00,50.9,50.4,29.19,SSW,211,11.6,12.5,98,0.00,,---,0.35,VWS V14.01,2013-01-30 21:19:00,
2013-01-30 16:24:00,50.9,50.4,29.19,SSW,201,14.3,16.6,98,0.00,,---,0.35,VWS V14.01,2013-01-30 21:24:00,
2013-01-30 16:29:00,50.9,50.4,29.19,SW,228,8.1,16.6,98,0.00,,---,0.35,VWS V14.01,2013-01-30 21:29:00,
2013-01-30 16:35:00,50.7,50.2,29.19,SSE,150,15.2,15.2,98,0.00,,---,0.35,VWS V14.01,2013-01-30 21:35:00,
2013-01-30 16:40:00,50.5,50.0,29.19,SSW,208,11.6,16.6,98,0.00,,---,0.35,VWS V14.01,2013-01-30 21:40:00,
2013-01-30 16:45:00,50.5,50.0,29.19,SSW,201,17.4,17.4,98,0.00,,---,0.35,VWS V14.01,2013-01-30 21:45:00,
2013-01-30 16:50:00,50.5,50.0,29.19,SW,221,8.1,12.5,98,0.00,,---,0.35,VWS V14.01,2013-01-30 21:50:00,
2013-01-30 16:55:00,50.5,50.0,29.19,SSW,200,11.6,11.6,98,0.00,,---,0.35,VWS V14.01,2013-01-30 21:55:00,
2013-01-30 17:00:00,50.4,49.8,29.19,SSW,210,11.6,16.1,98,0.00,,---,0.35,VWS V14.01,2013-01-30 22:00:00,
2013-01-30 17:05:00,50.4,49.8,29.19,SW,236,7.2,7.2,98,0.00,,---,0.35,VWS V14.01,2013-01-30 22:05:00,
2013-01-30 17:10:00,50.4,49.8,29.19,South,176,12.5,12.5,98,0.00,,---,0.35,VWS V14.01,2013-01-30 22:10:00,
2013-01-30 17:15:00,50.4,49.8,29.19,SSW,197,8.1,8.1,98,0.00,,---,0.35,VWS V14.01,2013-01-30 22:15:00,
2013-01-30 17:20:00,50.4,49.8,29.19,SE,142,4.5,12.5,98,0.00,,---,0.35,VWS V14.01,2013-01-30 22:20:00,
2013-01-30 17:25:00,50.2,49.6,29.16,SSW,207,10.7,10.7,98,0.00,,---,0.35,VWS V14.01,2013-01-30 22:25:00,
2013-01-30 17:30:00,50.2,49.6,29.16,SSW,202,6.3,8.1,98,0.00,,---,0.35,VWS V14.01,2013-01-30 22:30:00,
2013-01-30 17:35:00,50.0,49.5,29.16,SSE,154,11.6,11.6,98,0.00,,---,0.35,VWS V14.01,2013-01-30 22:35:00,
2013-01-30 17:40:00,49.8,49.3,29.16,South,185,17.4,19.2,98,0.00,,---,0.35,VWS V14.01,2013-01-30 22:40:00,
2013-01-30 17:45:00,49.8,49.3,29.16,South,172,8.9,8.9,98,0.00,,---,0.35,VWS V14.01,2013-01-30 22:45:00,
2013-01-30 17:51:00,49.8,49.3,29.16,SSW,192,12.5,12.5,98,0.00,,---,0.35,VWS V14.01,2013-01-30 22:51:00,
2013-01-30 17:56:00,49.6,49.1,29.16,SSE,166,8.1,8.1,98,0.00,,---,0.35,VWS V14.01,2013-01-30 22:56:00,
2013-01-30 18:01:00,49.6,49.1,29.16,SE,130,7.2,8.1,98,0.00,,---,0.35,VWS V14.01,2013-01-30 23:01:00,
2013-01-30 18:06:00,49.6,49.1,29.16,SE,143,12.5,12.5,98,0.00,,---,0.35,VWS V14.01,2013-01-30 23:06:00,
2013-01-30 18:11:00,49.5,48.9,29.16,SSW,193,0.0,0.0,98,0.00,,---,0.35,VWS V14.01,2013-01-30 23:11:00,
2013-01-30 18:16:00,49.5,48.9,29.16,South,189,13.4,13.4,98,0.00,,---,0.35,VWS V14.01,2013-01-30 23:16:00,
2013-01-30 18:21:00,49.3,48.7,29.13,SSW,201,7.2,10.7,98,0.00,,---,0.35,VWS V14.01,2013-01-30 23:21:00,
2013-01-30 18:26:00,49.3,48.7,29.13,South,171,15.2,25.5,98,0.00,,---,0.35,VWS V14.01,2013-01-30 23:26:00,
2013-01-30 18:31:00,49.3,48.7,29.13,South,173,16.1,16.1,98,0.00,,---,0.35,VWS V14.01,2013-01-30 23:31:00,
2013-01-30 18:36:00,49.3,48.7,29.13,SSW,202,6.3,6.3,98,0.00,,---,0.35,VWS V14.01,2013-01-30 23:36:00,
2013-01-30 18:42:00,49.3,48.7,29.13,SW,218,8.9,8.9,98,0.04,,---,0.39,VWS V14.01,2013-01-30 23:42:00,
2013-01-30 18:47:00,49.1,48.6,29.13,WNW,293,10.7,21.9,98,0.04,,---,0.39,VWS V14.01,2013-01-30 23:47:00,
2013-01-30 18:52:00,48.0,47.5,29.16,WSW,238,12.5,19.2,98,0.04,,---,0.39,VWS V14.01,2013-01-30 23:52:00,
2013-01-30 18:57:00,46.2,45.7,29.16,WSW,240,20.1,21.9,98,0.04,,---,0.39,VWS V14.01,2013-01-30 23:57:00,
2013-01-30 19:02:00,45.9,45.3,29.16,SSW,208,16.6,21.9,98,0.04,,---,0.39,VWS V14.01,2013-01-31 00:02:00,
2013-01-30 19:07:00,45.1,44.1,29.16,WSW,239,17.4,17.4,96,0.04,,---,0.39,VWS V14.01,2013-01-31 00:07:00,
2013-01-30 19:12:00,44.8,43.7,29.16,WSW,247,12.5,12.5,96,0.08,,---,0.43,VWS V14.01,2013-01-31 00:12:00,
2013-01-30 19:17:00,44.4,43.6,29.16,SW,224,11.6,11.6,97,0.08,,---,0.43,VWS V14.01,2013-01-31 00:17:00,
2013-01-30 19:22:00,44.1,43.0,29.16,West,267,6.3,11.6,96,0.08,,---,0.43,VWS V14.01,2013-01-31 00:22:00,
2013-01-30 19:27:00,44.1,43.3,29.16,SW,216,6.3,11.6,97,0.08,,---,0.43,VWS V14.01,2013-01-31 00:27:00,
2013-01-30 19:32:00,43.7,42.6,29.16,WNW,287,15.2,17.4,96,0.08,,---,0.43,VWS V14.01,2013-01-31 00:32:00,
2013-01-30 19:37:00,43.5,42.5,29.13,NNW,327,11.6,11.6,96,0.08,,---,0.43,VWS V14.01,2013-01-31 00:37:00,
2013-01-30 19:42:00,43.3,42.3,29.13,WSW,250,9.8,10.7,96,0.04,,---,0.43,VWS V14.01,2013-01-31 00:42:00,
2013-01-30 19:48:00,43.2,42.1,29.13,SW,219,7.2,7.2,96,0.04,,---,0.43,VWS V14.01,2013-01-31 00:48:00,
2013-01-30 19:53:00,43.0,41.9,29.13,SW,233,7.2,7.2,96,0.04,,---,0.43,VWS V14.01,2013-01-31 00:53:00,
2013-01-30 19:58:00,43.0,41.9,29.13,WSW,244,4.5,4.5,96,0.04,,---,0.43,VWS V14.01,2013-01-31 00:58:00,
2013-01-30 20:03:00,42.8,41.7,29.13,SSW,213,5.4,5.4,96,0.04,,---,0.43,VWS V14.01,2013-01-31 01:03:00,
2013-01-30 20:08:00,42.8,41.7,29.16,SW,215,12.5,12.5,96,0.04,,---,0.43,VWS V14.01,2013-01-31 01:08:00,
2013-01-30 20:13:00,42.8,41.7,29.16,SW,230,7.2,15.2,96,0.00,,---,0.43,VWS V14.01,2013-01-31 01:13:00,
2013-01-30 20:18:00,42.6,41.8,29.16,South,189,5.4,7.2,97,0.04,,---,0.47,VWS V14.01,2013-01-31 01:18:00,
2013-01-30 20:23:00,42.4,41.7,29.16,SE,138,20.1,20.1,97,0.04,,---,0.47,VWS V14.01,2013-01-31 01:23:00,
2013-01-30 20:28:00,42.3,41.5,29.16,SW,221,12.5,12.5,97,0.04,,---,0.47,VWS V14.01,2013-01-31 01:28:00,
2013-01-30 20:33:00,42.1,41.3,29.16,West,278,21.9,26.4,97,0.04,,---,0.47,VWS V14.01,2013-01-31 01:33:00,
2013-01-30 20:38:00,41.5,40.5,29.13,West,270,20.1,20.1,96,0.04,,---,0.47,VWS V14.01,2013-01-31 01:38:00,
2013-01-30 20:43:00,41.0,39.7,29.13,SSW,200,8.1,20.1,95,0.04,,---,0.47,VWS V14.01,2013-01-31 01:43:00,
2013-01-30 20:48:00,40.5,38.6,29.13,SW,233,17.4,17.4,93,0.04,,---,0.47,VWS V14.01,2013-01-31 01:48:00,
2013-01-30 20:53:00,40.3,38.2,29.16,South,187,12.5,19.2,92,0.04,,---,0.47,VWS V14.01,2013-01-31 01:53:00,
2013-01-30 20:58:00,39.9,37.8,29.16,WNW,301,16.1,19.2,92,0.04,,---,0.47,VWS V14.01,2013-01-31 01:58:00,
2013-01-30 21:03:00,39.7,37.6,29.16,West,271,11.6,11.6,92,0.04,,---,0.47,VWS V14.01,2013-01-31 02:03:00,
2013-01-30 21:08:00,39.6,37.4,29.16,South,189,6.3,8.1,92,0.04,,---,0.47,VWS V14.01,2013-01-31 02:08:00,
2013-01-30 21:13:00,39.4,37.2,29.16,WSW,237,7.2,15.2,92,0.04,,---,0.47,VWS V14.01,2013-01-31 02:13:00,
2013-01-30 21:18:00,39.4,37.2,29.16,SSW,198,7.2,10.7,92,0.04,,---,0.47,VWS V14.01,2013-01-31 02:18:00,
2013-01-30 21:23:00,39.0,37.2,29.16,SW,217,11.6,32.7,93,0.00,,---,0.47,VWS V14.01,2013-01-31 02:23:00,
2013-01-30 21:28:00,38.8,37.0,29.16,SW,226,20.1,21.9,93,0.00,,---,0.47,VWS V14.01,2013-01-31 02:28:00,
2013-01-30 21:33:00,38.7,36.5,29.16,SW,224,23.7,23.7,92,0.00,,---,0.47,VWS V14.01,2013-01-31 02:33:00,
2013-01-30 21:38:00,38.5,36.4,29.16,WSW,246,12.5,16.1,92,0.00,,---,0.47,VWS V14.01,2013-01-31 02:38:00,
2013-01-30 21:43:00,38.5,36.6,29.16,SSW,211,9.8,16.1,93,0.00,,---,0.47,VWS V14.01,2013-01-31 02:43:00,
2013-01-30 21:48:00,38.3,36.5,29.16,West,265,6.3,6.3,93,0.00,,---,0.47,VWS V14.01,2013-01-31 02:48:00,
2013-01-30 21:53:00,38.1,36.0,29.16,WSW,237,12.5,12.5,92,0.00,,---,0.47,VWS V14.01,2013-01-31 02:53:00,
2013-01-30 21:58:00,38.1,36.0,29.16,WNW,296,11.6,11.6,92,0.00,,---,0.47,VWS V14.01,2013-01-31 02:58:00,
2013-01-30 22:03:00,38.1,36.0,29.16,WSW,252,12.5,12.5,92,0.00,,---,0.47,VWS V14.01,2013-01-31 03:03:00,
2013-01-30 22:09:00,37.9,35.8,29.16,SW,236,17.4,17.4,92,0.00,,---,0.47,VWS V14.01,2013-01-31 03:09:00,
2013-01-30 22:14:00,37.9,35.8,29.16,SSW,198,5.4,6.3,92,0.00,,---,0.47,VWS V14.01,2013-01-31 03:14:00,
2013-01-30 22:19:00,37.8,35.7,29.16,SSW,204,9.8,9.8,92,0.00,,---,0.47,VWS V14.01,2013-01-31 03:19:00,
2013-01-30 22:24:00,37.8,35.7,29.16,WSW,240,8.1,16.1,92,0.00,,---,0.47,VWS V14.01,2013-01-31 03:24:00,
2013-01-30 22:29:00,37.8,35.7,29.16,WSW,256,12.5,16.1,92,0.00,,---,0.47,VWS V14.01,2013-01-31 03:29:00,
2013-01-30 22:34:00,37.6,35.5,29.16,WSW,243,6.3,11.6,92,0.00,,---,0.47,VWS V14.01,2013-01-31 03:34:00,
2013-01-30 22:39:00,37.6,35.5,29.16,SW,235,10.7,10.7,92,0.00,,---,0.47,VWS V14.01,2013-01-31 03:39:00,
2013-01-30 22:44:00,37.4,35.3,29.16,WSW,256,35.8,35.8,92,0.00,,---,0.47,VWS V14.01,2013-01-31 03:44:00,
2013-01-30 22:49:00,36.7,34.3,29.16,WSW,245,16.6,16.6,91,0.00,,---,0.47,VWS V14.01,2013-01-31 03:49:00,
2013-01-30 22:54:00,36.1,33.5,29.16,WSW,251,9.8,17.4,90,0.00,,---,0.47,VWS V14.01,2013-01-31 03:54:00,
2013-01-30 22:59:00,35.8,33.4,29.16,WSW,256,6.3,16.1,91,0.00,,---,0.47,VWS V14.01,2013-01-31 03:59:00,
2013-01-30 23:04:00,35.4,33.1,29.16,NW,311,20.1,20.1,91,0.00,,---,0.47,VWS V14.01,2013-01-31 04:04:00,
2013-01-30 23:09:00,34.9,32.2,29.19,North,350,21.9,24.6,90,0.00,,---,0.47,VWS V14.01,2013-01-31 04:09:00,
2013-01-30 23:14:00,34.5,31.6,29.19,NNW,339,32.7,32.7,89,0.00,,---,0.47,VWS V14.01,2013-01-31 04:14:00,
2013-01-30 23:20:00,34.3,31.2,29.19,WNW,303,11.6,17.4,88,0.00,,---,0.47,VWS V14.01,2013-01-31 04:20:00,
2013-01-30 23:25:00,34.2,31.0,29.19,West,281,17.4,21.9,88,0.00,,---,0.47,VWS V14.01,2013-01-31 04:25:00,
2013-01-30 23:30:00,34.0,30.8,29.19,West,267,21.0,24.6,88,0.00,,---,0.47,VWS V14.01,2013-01-31 04:30:00,
2013-01-30 23:35:00,33.8,30.4,29.19,SW,220,18.3,26.4,87,0.00,,---,0.47,VWS V14.01,2013-01-31 04:35:00,
2013-01-30 23:40:00,33.4,29.7,29.22,WNW,287,21.0,21.0,86,0.00,,---,0.47,VWS V14.01,2013-01-31 04:40:00,
2013-01-30 23:45:00,33.1,28.8,29.22,NW,310,16.6,24.6,84,0.00,,---,0.47,VWS V14.01,2013-01-31 04:45:00,
2013-01-30 23:50:00,32.7,28.4,29.22,NW,308,16.6,16.6,84,0.00,,---,0.47,VWS V14.01,2013-01-31 04:50:00,
2013-01-30 23:55:00,32.7,28.1,29.22,WNW,289,14.3,25.5,83,0.00,,---,0.47,VWS V14.01,2013-01-31 04:55:00,